ATLAS 5 CENTAUR DEB, 44106

Orbit data source: Space-Track

ATLAS 5 CENTAUR DEB, 44106 is space debris in HEO originally from a launch on Wed, 17 Sep 2014 UTC launched from the Air Force Eastern Test Range (AFETR). Debris objects in space refer to the collection of defunct objects orbiting the Earth. Examples of debris include non-operational satellites, rocket bodies, and fragments generated from explosions, collisions, or faulty payload assembly.

Loading next visibility...
Identifier
44106, 2014-055CB
Orbit
HEO
Country
Flag of USUS
Related business
Flag of USUnited Launch Alliance/Lockheed Martin (US)
Manufacturer
Unknown
Mission
Spacecraft
Bus & Motor
Unknown
Mass
Unknown
Launch date (UTC)
2014-09-17 (12 years ago)
Launch vehicle
Unknown
Launch site
Air Force Eastern Test Range (AFETR)
Object type
Payload
Rocket body
Debris
Shape & HBR
Unknown shape, 1.1 m
Radar Cross Section
Medium (>0.1 m² and <1 m²)

Expand to show TLE details & history
Last TLE update: 2 days ago

TLE from 2 days ago
0 ATLAS 5 CENTAUR DEB
1 44106U 14055CB  26252.33718625 -.00000104  00000-0  00000-0 0  9998
2 44106  20.2390 135.0133 4783821 179.8356 180.3994  1.84989577 51302
Epoch: 2026-09-09T08:05Z
TLE epoch observation values (Epoch: 2026-09-09T08:05:32.892Z)
Latitude
0.00003°
Longitude
25.26683°
Altitude
35,074.473 km
Speed
2.239 km/s
True Right ascension
09h 00m 10s
True Declination
0° 00' 00"
Sunlit
Object was in daylight at epoch
Visualization orbit readout
Latitude
Unknown
Longitude
Unknown
Altitude
Unknown
Speed
Unknown
Apparent Right ascension
Unknown
Apparent Declination
Unknown
Sunlit
N/A
Visualization observer readout
Local Sidereal Time
15:30:41
Azimuth
Unknown
Elevation
Unknown
Doppler factor
Unknown
Orbital elements
Apogee altitude
35,065.08 km
Perigee altitude
8,244.283 km
Semi-major axis
28,032.818 km
Eccentricity
0.47838
Inclination
20.239°
RAAN
135.0133°
Arg. of periapsis
179.8356°
True anomaly
180.16047°
Mean anomaly
180.3994°
Eccentric anomaly
180.27016°
Mean motion
0.46243 °/min
Orbital period
778.5 mins
BSTAR
0
Loading maneuver chart data...
Computing Atmospheric mass density...

Documentation

Showing up to 5 results
|